{"data":{"norad_id":65023,"intl_designator":"2025-161J","name":"STARLINK-34858","alt_names":[],"object_type":"PAYLOAD","status":"ACTIVE","operator":null,"country":"US","launch_date":"2025-07-30","launch_site_code":"AFWTR","launch_vehicle":null,"mission":null,"orbit_class":"UNKNOWN","rcs_meters":null,"size_class":null,"mass_kg":null,"dimensions":null,"purposes":["comms"],"wikipedia_slug":null,"has_3d_model":false,"image_url":null,"decayed_at":null,"tle_current":{"epoch":"2026-05-25T03:27:12.840768Z","epoch_age_seconds":56507,"freshness":"FRESH","line1":"1 65023U 25161J   26145.14389862  .00024722  00000+0  84356-3 0  9995","line2":"2 65023  53.1595 299.2007 0001111  89.6187 270.4941 15.30218850 47021","mean_motion":15.3021885,"eccentricity":0.0001111,"inclination_deg":53.1595,"raan_deg":299.2007,"arg_perigee_deg":89.6187,"mean_anomaly_deg":270.4941,"bstar":0.00084356,"rev_number":4702,"period_min":94.104186469798,"perigee_km":474.39738613286,"apogee_km":475.92018845679,"semimajor_km":6853.2957872948,"source":"CELESTRAK","updated_at":"2026-05-25T13:38:20.668654Z"}}}